Tracking 35331 objects as of 15-Sep-2026
HD Live streaming from Space Station
objects crossing your sky now

FLOCK 3K 8


FLOCK 3K 8 is no longer on orbit
FLOCK 3K 8 is classified as:


NORAD ID: 43901
Int'l Code: 2018-111AB
Launch date: December 27, 2018
Source: United States (US)
Launch site: VOSTOCHNY COSMODROME (VOSTO)
Decay date: 2023-01-17
Your satellite tracking list
Your tracking list is empty




NASA's NSSDC Master Catalog

Two Line Element Set (TLE):
1 43901U 18111AB  23017.13247999  .08768595  24240-5  20640-2 0  9995
2 43901  97.1412 274.2968 0004998 170.2269 189.9124 16.29756123226835
Source of the keplerian elements: AFSPC